Location: Melque
(41.0517°N, 4.4694°W)
Time: 20:57:32
(UTC+00:00)

Cosmos 372 Rocket - Pass Details

Date: 11 December 2025
Orbit: 734 x 761 km, 74.1° (Epoch: 12 January)

Event Time Altitude Azimuth Distance (km) Brightness Sun altitude
Rises 18:32:26 0° 199° (SSW) 3,191 7.7 -18.7°
Reaches altitude 10° 18:34:48 10° 199° (SSW) 2,266 6.9 -19.2°
Maximum altitude 18:39:57 86° 290° (WNW) 755 3.9 -20.1°
Enters shadow 18:43:18 22° 18° (NNE) 1,588 5.3 -20.7°
